Location: Cork
(51.8990°N, 8.4960°W)
Time: 01:16:06
(UTC+01:00)

Iridium 66 - Visible Passes

Search period start: 29 July 2016 00:00
Search period end: 08 August 2016 00:00
Orbit: 776 x 779 km, 86.4° (Epoch: 28 July)

Date Brightness Start Highest point End Pass type
(mag) Time Alt. Az. Time Alt. Az. Time Alt. Az.
29 Jul 7.2 04:32:49 10° SSE 04:37:44 43° E 04:42:39 10° NNE visible
30 Jul 8.0 04:00:07 10° SE 04:04:25 27° E 04:08:44 10° NNE visible
31 Jul 8.6 03:28:02 10° ESE 03:31:14 17° ENE 03:34:26 10° NE visible
31 Jul 6.1 05:06:02 10° S 05:11:15 84° W 05:16:31 10° N visible
01 Aug 6.6 04:32:39 10° SSE 04:37:46 59° E 04:42:54 10° N visible
02 Aug 7.5 03:59:41 10° SSE 04:04:24 36° E 04:09:07 10° NNE visible
03 Aug 8.2 03:27:12 10° SE 03:31:08 22° ENE 03:35:05 10° NNE visible
03 Aug 6.1 05:06:14 10° SSW 05:11:25 63° W 05:16:37 10° N visible
04 Aug 8.6 02:55:29 10° E 02:58:00 14° ENE 03:00:31 10° NE visible
04 Aug 6.2 04:32:38 10° S 04:37:50 80° E 04:43:05 10° N visible
05 Aug 6.9 03:59:24 10° SSE 04:04:24 48° E 04:09:25 10° NNE visible
06 Aug 7.7 03:26:38 10° SE 03:31:04 29° E 03:35:33 10° NNE visible
06 Aug 6.5 05:06:36 10° SSW 05:11:37 46° WNW 05:16:39 10° N visible
07 Aug 8.3 02:54:23 10° ESE 02:57:52 18° ENE 03:01:22 10° NNE visible
07 Aug 6.0 04:32:59 11° S 04:37:58 76° W 04:43:14 10° N visible
